Temp
23 23 23 27 27 28 29 31 34 33 30 30 31 31 28 27 26 23 23 23 21 20 19 19 20 19 19 19 19 19 19 18 18 18 18 19 18 18 18 18 18 17 16 16 17 17 18 18 19
22 25 27 28 27 28 30 33 31 28 29 30 29 30 29 25 26 23 23 23 22 20 19 19 19 19 19 19 18 18 18 18 18 18 19 18 18 18 18 18 18 17 16 16 17 18 19 19 19
23 25 28 28 28 28 31 32 30 29 29 29 27 29 28 26 25 24 23 22 21 20 20 19 19 19 19 19 18 18 18 18 18 18 18 18 18 18 18 18 17 16 16 17 18 18 18 18 19
25 28 28 27 28 31 32 31 30 30 24 29 28 26 27 26 27 23 21 21 20 20 19 19 19 19 18 18 18 18 18 18 18 19 18 19 19 19 18 18 18 18 18 18 18 18 18 18 19
26 28 27 28 29 31 33 31 28 24 21 23 22 26 25 25 24 22 21 20 19 18 17 17 17 18 18 18 18 18 18 18 18 19 18 19 19 18 18 18 18 18 18 18 18 18 18 18 18
27 28 27 28 30 32 32 29 27 24 22 22 20 27 26 24 23 21 19 18 18 18 17 17 17 17 18 18 18 18 18 18 18 18 19 18 18 18 18 18 18 17 17 17 17 18 18 18 18
27 28 28 29 30 30 28 28 27 26 25 23 23 21 20 26 22 17 17 18 17 17 17 16 17 17 17 17 18 18 18 18 18 18 18 18 18 18 18 18 18 18 18 18 18 18 18 19 18
28 29 28 30 30 25 26 22 25 26 26 25 23 21 23 22 17 18 18 17 17 16 16 16 17 17 17 18 18 18 18 18 18 19 19 19 19 19 18 18 18 18 18 18 18 18 19 19 18
30 27 28 29 27 20 22 27 29 28 25 25 22 19 25 22 17 17 15 15 16 16 16 18 18 17 18 18 18 18 19 19 19 19 19 19 19 19 18 18 19 19 19 19 19 19 19 19 19
28 27 28 25 23 19 19 23 28 28 26 26 21 15 23 22 21 19 18 15 15 16 18 18 18 18 18 18 19 19 19 19 18 19 19 19 19 19 19 19 19 19 19 19 19 19 19 18 18
28 28 30 23 22 23 22 25 26 26 25 22 19 25 24 23 23 22 21 20 19 18 18 18 19 19 19 19 19 19 19 19 19 19 19 19 19 19 19 19 19 19 19 18 19 19 19 19 18
28 30 30 25 25 25 26 26 26 24 23 21 21 25 25 24 25 25 24 22 20 20 18 18 19 20 20 20 20 20 19 19 18 18 18 18 19 18 18 18 19 19 18 18 18 18 18 18 18
28 29 30 26 24 25 25 25 24 23 25 24 22 23 26 25 26 26 25 24 22 20 18 18 19 20 20 20 20 19 18 19 19 18 18 18 17 17 17 18 17 17 17 18 17 17 17 17 17
30 29 30 29 24 29 24 26 23 23 23 21 23 27 26 26 26 26 26 24 24 21 20 19 20 19 20 19 19 19 20 19 17 15 16 17 16 16 16 16 16 16 16 16 16 16 17 16 16
29 28 29 29 29 28 27 26 27 24 24 27 27 27 27 27 27 27 26 25 24 22 21 20 20 19 19 18 18 19 17 16 18 16 16 16 15 15 15 16 16 16 16 16 16 16 16 15 15
28 28 26 29 29 29 27 27 28 29 28 28 28 27 27 27 27 26 26 25 24 23 21 20 20 20 18 17 18 17 16 16 16 16 16 15 15 15 16 16 15 15 16 16 15 15 14 14 14
27 26 26 27 30 29 29 27 28 29 28 27 28 25 27 27 27 26 26 25 25 23 21 20 20 19 17 17 16 16 16 16 15 15 15 15 15 15 15 16 15 15 15 15 15 14 13 13 13
25 26 27 28 29 29 29 28 28 29 25 28 28 28 27 26 26 25 25 26 25 23 21 20 19 18 16 15 16 16 16 16 16 16 16 16 15 15 15 15 14 14 14 14 13 13 13 12 12
28 27 28 29 30 29 29 28 28 29 29 28 28 27 26 26 26 25 25 24 25 23 20 19 18 16 16 16 17 17 17 17 17 16 15 15 15 15 14 14 14 13 13 12 12 12 12 12 11
29 28 28 29 29 29 29 29 29 29 29 29 29 27 27 27 26 25 24 23 24 22 19 17 16 16 17 18 18 18 18 17 17 15 15 14 14 14 14 13 12 12 12 11 12 11 11 11 11
28 28 27 28 28 29 26 28 28 29 29 30 29 29 29 27 25 24 23 22 22 18 18 17 17 17 18 19 19 18 17 17 16 15 14 13 13 13 13 13 12 12 11 11 11 10 10 10 9
26 27 28 28 27 26 27 25 27 25 28 29 29 28 28 28 26 25 23 21 20 19 19 19 18 19 19 19 19 18 18 16 16 16 14 14 14 13 13 12 12 11 10 10 10 10 9 9 9
26 26 27 28 28 24 22 24 23 23 23 27 27 28 28 27 26 24 24 21 21 20 20 20 20 19 18 18 18 18 16 16 15 14 14 13 13 12 12 11 10 10 9 9 9 9 9 8 7
27 26 28 28 28 21 22 22 24 22 22 25 27 27 27 26 25 24 23 22 21 20 19 19 19 18 17 17 16 15 15 14 13 13 12 12 12 11 11 10 9 9 9 9 9 9 8 7 6
28 27 24 20 21 23 28 24 23 25 24 20 21 26 26 25 24 23 22 21 20 19 18 18 18 17 15 14 14 13 13 13 12 11 11 11 11 10 10 9 8 8 8 8 8 7 6 6 5
26 27 24 17 17 24 25 25 28 28 27 22 26 26 25 24 23 23 22 21 19 18 18 18 17 16 15 14 13 13 12 12 11 11 10 10 10 9 9 8 8 8 8 7 6 6 5 5 5
27 26 28 25 18 24 26 28 29 28 28 28 27 26 25 24 23 23 22 21 19 18 17 17 17 15 14 13 12 11 11 11 10 10 10 9 9 8 8 7 7 7 7 7 6 5 5 5 5
26 28 25 25 22 22 25 26 26 27 27 27 27 26 25 24 23 23 22 21 19 18 17 17 17 15 14 13 11 11 11 10 10 10 9 9 8 7 7 7 7 7 7 7 6 5 5 5 5
26 25 26 26 25 22 22 25 27 27 27 27 27 26 25 24 23 23 22 21 19 18 17 17 16 15 13 12 11 11 11 10 10 10 9 8 8 7 7 7 6 6 6 6 6 5 5 5 5
27 26 26 22 23 22 21 23 27 27 27 27 27 27 26 25 24 23 22 20 19 18 17 16 16 15 13 12 11 11 11 10 10 10 9 8 7 7 7 6 6 6 6 6 5 5 5 4 5
Height
780 780 782 778 792 775 771 753 724 733 742 744 738 742 760 764 772 796 780 784 785 791 796 807 807 813 817 821 822 826 828 832 833 836 838 839 841 842 843 842 844 845 846 849 848 848 848 847 846
779 778 778 773 789 784 761 729 747 746 746 743 743 749 758 778 771 780 785 785 787 794 799 807 810 814 818 823 825 827 831 835 834 839 840 842 843 844 845 846 846 848 848 849 851 850 850 849 848
778 777 777 775 775 778 756 733 741 746 747 747 758 755 764 776 774 780 784 787 792 797 804 808 814 819 821 820 828 831 834 836 837 839 842 844 847 847 848 849 850 850 850 851 852 851 853 851 850
778 774 773 778 774 749 739 735 746 744 761 752 758 772 770 773 772 778 784 788 795 801 805 812 818 822 823 824 827 832 835 839 839 840 845 846 848 850 851 852 852 852 852 853 854 854 855 853 853
775 768 779 772 764 743 730 731 744 766 776 776 777 776 775 777 780 781 787 791 797 799 808 816 820 823 823 826 829 832 837 840 841 843 845 846 849 852 854 853 854 856 856 855 855 857 858 857 856
774 766 780 774 754 736 727 735 749 766 777 780 789 770 773 778 782 786 791 795 799 803 810 816 822 823 825 828 831 837 840 842 844 846 847 849 851 854 856 856 857 858 858 859 858 859 858 860 857
773 768 770 757 749 747 752 741 752 762 773 781 773 789 782 777 782 790 796 803 807 812 816 819 825 827 829 831 832 838 842 844 846 847 850 852 854 855 857 858 859 861 861 861 859 860 860 860 859
764 762 764 752 748 770 755 771 755 758 769 770 776 789 785 776 784 790 796 802 808 815 813 818 820 830 831 833 834 840 843 845 847 849 852 853 854 856 857 858 860 860 862 862 860 860 860 860 860
754 771 769 755 757 790 769 757 751 752 763 770 780 783 772 778 789 793 801 809 816 816 820 822 825 827 831 835 838 841 843 846 849 851 853 853 855 856 856 857 858 860 861 861 860 860 859 860 858
760 769 760 764 771 786 784 766 758 759 765 771 786 788 779 780 791 794 802 813 817 816 821 821 824 828 831 836 839 841 844 847 850 853 853 856 857 857 857 855 856 858 859 858 859 860 859 860 859
755 766 744 770 766 763 776 769 764 770 774 783 795 773 781 787 791 792 799 804 809 815 818 821 825 828 832 836 840 842 845 849 852 854 855 856 856 855 856 856 856 858 858 860 858 859 860 859 859
761 748 744 763 756 762 770 770 774 773 773 776 785 773 783 786 784 789 795 803 813 817 820 824 827 830 834 837 841 842 845 849 853 853 854 856 857 856 854 856 857 857 858 859 858 859 858 858 859
756 748 743 754 760 769 765 773 776 778 765 771 778 778 781 784 785 790 794 801 809 816 821 825 827 831 835 838 840 842 845 847 849 850 852 854 855 856 856 857 856 857 855 856 856 857 857 857 858
746 746 745 747 759 752 770 771 777 778 778 781 778 779 783 784 790 792 795 801 809 816 823 826 830 833 835 837 839 842 844 846 845 850 853 855 854 855 855 855 854 854 856 856 856 857 856 857 857
746 759 751 752 751 757 757 776 767 769 776 774 777 780 782 783 788 793 796 802 807 812 819 824 827 832 835 836 838 840 841 845 845 849 851 851 851 852 854 855 855 854 856 857 856 856 857 856 856
760 757 774 754 752 751 760 779 764 756 761 768 771 776 780 784 789 794 798 803 806 810 817 823 827 832 834 836 838 841 843 845 845 848 850 851 851 853 855 855 855 855 857 857 856 857 856 856 856
763 779 774 766 747 750 755 770 762 756 759 768 771 779 779 784 789 793 798 802 804 809 814 823 829 833 833 836 839 841 844 846 846 849 851 852 854 855 855 855 856 858 857 858 857 856 855 855 854
781 774 765 764 754 752 757 765 763 758 766 760 768 772 780 787 790 796 799 800 803 807 813 820 829 831 832 836 840 843 845 846 847 851 852 854 854 854 855 856 857 857 857 857 856 856 856 855 853
760 762 764 751 745 754 756 762 764 759 759 764 767 769 778 787 790 796 798 800 803 807 813 818 825 829 833 837 839 842 844 846 848 850 852 853 854 855 856 856 856 856 856 856 855 855 853 852 851
753 759 756 751 749 756 754 759 758 757 759 760 763 769 776 778 787 794 799 802 804 808 812 818 824 830 831 834 837 840 842 845 847 850 853 853 855 855 855 856 857 856 855 855 854 853 851 850 850
754 758 764 761 757 753 768 764 759 755 754 755 758 759 764 772 783 791 798 802 805 808 813 817 823 826 828 832 836 838 840 844 847 849 851 853 855 856 856 856 855 854 854 853 852 851 850 848 848
771 760 757 761 768 781 766 790 767 773 761 756 756 759 762 766 776 786 794 799 805 808 813 817 820 824 827 830 835 838 840 843 846 849 851 854 856 856 856 856 854 853 852 851 850 850 848 848 847
769 758 760 754 759 779 790 791 784 777 778 761 759 758 758 763 771 782 790 797 804 808 811 815 819 823 827 831 832 835 838 842 846 848 850 853 854 855 854 854 853 851 850 849 848 847 846 847 846
754 761 755 752 758 805 788 798 783 792 776 768 761 765 765 765 772 782 791 798 804 809 812 815 820 825 828 829 831 833 837 841 843 847 850 851 853 853 853 852 852 850 848 846 845 844 844 844 845
752 761 786 813 806 790 749 778 772 754 762 772 776 761 766 770 776 784 792 800 806 809 813 817 821 825 827 830 833 835 838 841 844 846 847 847 849 851 850 851 850 847 845 844 842 841 842 842 843
763 759 784 839 841 788 765 776 746 735 740 758 752 754 763 771 778 784 792 800 806 811 814 817 820 825 828 831 834 836 838 841 843 845 846 847 848 849 848 848 846 844 843 841 841 840 840 839 839
755 762 748 774 804 785 767 749 736 736 742 740 745 753 762 770 777 784 792 798 805 810 813 815 819 823 827 830 833 835 838 840 842 843 844 845 846 846 846 845 844 842 841 839 839 839 839 839 838
755 747 773 768 800 801 772 761 754 749 747 747 745 753 760 768 776 782 789 795 802 809 812 815 817 820 824 827 831 833 836 838 840 841 843 843 844 845 844 843 842 841 839 838 837 837 836 836 835
758 764 760 761 769 794 797 774 746 749 745 747 748 749 757 765 772 778 784 791 799 806 810 813 815 819 822 826 829 831 834 836 839 839 840 841 842 843 842 841 840 839 837 836 834 834 833 832 830
746 753 754 785 787 782 793 782 742 745 743 745 746 744 749 757 765 772 780 788 796 802 807 811 815 818 821 825 828 830 832 834 836 837 838 839 840 840 840 839 837 836 836 834 833 832 830 828 826
Wind_Speed
11 11 11 15 6 8 15 18 20 3 15 6 6 11 13 13 6 4 8 24 34 31 30 26 27 25 24 22 22 21 19 17 17 16 15 15 15 16 16 17 16 16 16 15 16 17 18 20 19
10 13 17 6 8 12 15 14 11 15 13 12 14 6 11 10 12 15 15 28 32 30 28 26 26 25 24 22 21 20 19 16 17 16 15 14 15 15 15 15 15 15 15 15 16 18 20 21 22
11 13 7 6 12 14 17 8 10 14 11 12 6 11 4 10 13 7 20 23 29 30 25 25 24 22 23 24 19 18 17 17 17 16 14 14 13 14 14 14 15 15 16 17 17 18 18 20 21
8 8 7 8 18 21 19 16 14 6 14 6 12 8 4 6 5 16 20 24 25 25 23 25 22 21 21 20 18 17 17 15 16 15 14 13 13 13 14 14 15 16 17 16 16 16 16 18 20
15 7 10 13 18 22 9 11 16 15 6 8 13 4 6 6 8 26 21 18 22 21 26 21 19 20 20 19 18 17 16 15 14 14 13 13 13 13 14 15 15 15 15 15 15 14 14 16 18
7 9 13 14 22 16 7 20 21 17 13 4 7 7 9 14 15 17 20 23 23 28 26 21 16 18 18 18 18 16 15 14 13 13 13 13 13 13 13 13 14 13 12 12 12 11 11 12 15
14 11 16 20 17 10 12 17 16 13 16 7 5 3 6 13 22 25 29 26 25 23 23 24 18 17 19 19 19 16 14 13 12 13 13 13 12 13 11 10 10 9 9 8 8 8 9 9 10
12 12 21 19 18 4 10 9 12 14 11 11 6 6 5 18 24 25 21 24 29 17 19 23 21 20 19 18 17 15 14 13 12 13 13 13 14 11 9 9 7 6 6 7 8 8 9 11 9
16 12 14 17 12 5 9 1 10 16 7 2 6 8 13 27 25 26 26 23 21 21 17 26 25 21 19 19 17 16 15 14 14 14 12 10 7 5 7 6 5 4 6 7 7 8 10 10 17
12 11 17 15 13 8 2 13 6 3 17 10 7 27 19 23 22 25 24 34 35 24 19 22 22 20 20 17 18 14 14 12 8 9 6 9 5 3 2 1 2 3 6 7 6 9 10 10 13
15 15 15 4 11 16 21 6 16 6 3 16 8 19 18 19 17 18 20 27 26 25 22 20 18 18 20 17 16 15 15 12 8 8 4 4 4 4 2 4 1 5 8 11 10 12 12 14 10
15 17 13 8 6 6 10 18 8 1 7 6 7 6 15 15 15 17 20 30 24 23 23 19 20 17 17 16 15 19 15 13 11 8 3 4 2 5 3 6 6 10 11 11 13 14 12 13 16
14 15 1 13 12 13 20 14 7 6 2 4 2 8 14 10 15 15 19 26 26 23 18 17 18 18 18 19 18 20 16 14 8 6 2 4 5 2 2 9 10 8 5 7 9 12 16 17 16
9 13 5 7 19 8 19 7 13 15 12 4 10 13 13 14 17 14 18 22 19 26 23 22 20 21 17 19 21 19 17 9 6 10 7 4 1 6 5 4 2 4 8 11 11 13 15 15 18
4 5 3 2 5 9 8 20 6 29 23 22 19 14 14 14 18 15 17 17 22 24 23 21 21 20 19 20 20 20 14 5 3 3 4 5 3 2 4 5 8 10 11 12 12 14 15 15 17
7 11 4 4 7 8 12 11 11 17 17 16 18 14 11 12 15 14 16 15 20 25 22 20 19 20 21 21 21 15 5 4 2 4 5 8 7 6 6 8 9 6 10 11 11 12 13 17 19
8 6 9 13 12 4 7 15 13 13 7 17 15 11 14 11 14 16 15 17 17 27 26 21 19 20 20 18 18 6 5 5 4 7 7 8 7 6 6 3 6 8 10 11 11 14 17 18 21
5 5 11 13 11 15 10 14 13 11 21 10 14 12 11 10 9 13 13 15 16 26 27 25 18 22 14 13 12 6 5 7 9 8 7 6 7 6 2 6 7 7 10 12 14 16 16 16 18
8 14 19 12 11 9 10 15 15 14 10 12 14 17 16 12 14 13 8 8 6 23 28 25 22 23 17 13 13 9 11 12 11 9 9 7 7 5 6 4 7 10 9 13 14 15 15 16 17
13 9 8 9 6 7 10 11 15 15 15 14 13 19 16 16 14 14 12 11 9 15 23 20 18 15 17 15 13 14 16 10 13 10 8 8 6 5 4 6 7 9 11 14 14 16 18 14 14
11 5 8 9 7 9 6 11 16 15 15 14 13 12 13 16 14 12 14 15 14 21 21 18 18 19 18 16 15 13 15 12 11 8 11 5 4 4 5 8 8 11 11 13 15 16 16 10 12
8 12 5 7 11 7 5 8 10 7 14 14 13 13 13 15 14 13 15 16 18 19 15 22 23 17 18 15 14 13 11 14 11 12 8 4 4 5 7 10 11 11 12 14 15 14 15 13 13
4 15 10 16 9 5 9 9 10 11 11 15 15 12 11 11 14 14 15 21 22 20 20 20 18 15 14 8 13 10 14 12 11 9 8 6 7 8 8 9 12 13 15 16 15 15 13 11 11
11 10 14 10 10 2 15 10 11 10 19 11 14 11 9 11 12 13 18 20 19 19 19 19 18 16 14 13 14 17 14 12 13 8 3 3 5 7 8 10 13 13 14 15 13 10 8 9 11
8 9 5 8 5 8 8 9 8 20 10 12 16 16 12 11 13 14 15 18 19 19 18 18 19 18 16 16 16 16 14 11 8 5 4 2 2 6 8 12 12 13 13 13 10 8 9 12 13
19 10 3 7 4 9 3 5 2 21 16 28 25 16 15 14 12 14 17 19 20 20 20 20 21 20 18 18 17 15 12 7 9 6 3 1 3 6 10 10 12 14 13 10 12 13 10 14 12
6 7 7 2 14 6 3 13 10 9 9 1 18 16 16 15 14 14 18 20 21 20 21 21 22 21 20 19 16 11 11 12 9 6 3 1 3 6 9 11 13 14 16 11 11 10 11 12 15
6 8 3 2 2 4 8 10 5 5 4 2 9 14 14 14 15 13 16 19 21 20 21 20 21 23 22 19 15 14 13 12 8 6 4 2 4 8 10 12 13 14 15 14 11 13 13 18 16
6 7 7 6 3 1 3 3 6 7 6 4 6 13 14 15 14 13 16 20 20 20 21 20 21 22 21 17 16 15 14 12 9 6 4 3 5 8 10 12 13 14 14 15 13 16 18 18 15
8 10 12 3 5 2 1 6 3 5 4 2 4 8 14 16 14 14 17 18 17 19 20 20 19 21 18 17 16 17 15 12 9 6 5 6 7 9 11 13 14 15 14 12 11 14 15 16 12
Wind_Direction
227 239 253 255 244 234 257 257 259 137 96 79 77 41 83 37 9 88 111 126 131 137 143 149 144 144 139 134 128 121 115 112 103 97 92 86 87 86 85 80 76 71 69 66 65 63 57 54 52
231 230 236 275 239 258 251 259 23 72 94 96 77 94 78 64 85 127 121 134 134 137 137 149 148 145 138 132 124 118 115 110 103 96 89 89 89 88 82 76 74 72 73 73 69 63 60 57 53
228 252 253 231 235 251 266 54 109 113 140 100 79 63 37 104 111 132 138 134 135 135 142 147 148 142 136 122 118 116 111 106 101 94 92 92 88 84 78 76 77 77 79 79 74 70 63 58 52
228 225 248 259 254 245 259 147 120 138 23 55 121 117 94 35 107 119 134 135 131 135 142 145 145 139 123 118 121 118 109 107 101 93 91 91 86 77 77 79 80 82 82 77 72 67 60 53 46
237 263 240 249 244 262 242 88 82 76 68 21 331 98 90 91 112 123 128 129 131 134 132 136 139 129 123 129 121 114 115 108 99 95 96 93 88 87 86 83 82 77 76 77 74 62 49 44 38
221 228 254 240 243 268 57 102 101 103 123 113 276 136 96 131 116 111 102 112 125 121 130 122 140 126 122 119 119 116 109 103 98 98 97 96 96 96 90 84 80 78 76 65 59 51 42 33 32
251 247 243 259 271 244 46 108 109 123 152 82 101 41 295 137 113 114 105 107 112 131 134 117 144 133 127 125 116 116 110 104 102 101 99 98 97 92 85 77 70 61 55 49 42 25 14 9 14
241 257 268 271 272 106 85 334 160 148 118 120 132 150 235 113 112 123 121 135 140 154 162 164 141 136 129 118 115 118 109 103 97 101 103 105 91 93 80 70 42 39 28 16 9 359 353 349 326
239 262 265 271 309 7 329 108 37 95 114 86 130 44 111 114 121 124 117 126 134 135 165 145 137 132 128 122 121 113 104 103 100 104 105 104 92 74 111 65 28 16 7 359 7 5 353 344 352
239 240 256 74 108 102 345 294 136 245 142 194 138 188 118 120 138 140 143 154 154 152 141 128 135 135 123 120 107 108 114 102 107 88 77 113 125 103 154 38 30 54 6 349 344 341 340 8 357
231 251 272 105 138 161 194 191 53 7 10 93 313 118 117 136 138 126 128 128 121 123 120 126 135 136 128 125 135 132 118 124 119 118 69 133 157 97 33 311 324 18 2 13 5 351 346 345 345
246 237 274 47 183 173 39 77 39 334 238 201 192 104 138 135 139 135 133 120 125 128 126 130 136 134 130 150 134 122 117 118 121 120 118 99 13 108 80 26 37 12 10 11 12 359 355 349 350
233 272 247 106 56 222 101 117 152 237 217 54 285 253 120 132 108 146 140 127 138 129 134 141 141 129 142 126 130 117 117 111 123 150 147 37 25 353 175 319 328 338 358 348 323 348 343 343 331
244 269 153 153 176 180 78 228 156 215 204 229 197 146 140 154 144 149 134 126 139 134 148 151 148 146 142 140 138 134 137 135 94 68 33 22 72 257 318 21 353 344 348 354 0 345 346 340 342
326 294 246 207 140 104 142 203 180 170 188 155 154 145 163 158 148 147 127 137 139 140 145 152 144 151 145 144 147 147 148 128 146 26 335 337 224 265 317 345 6 21 15 354 348 347 342 352 335
241 235 202 184 193 187 167 109 136 132 145 160 147 148 157 142 145 140 140 156 146 139 141 145 151 158 154 152 158 158 121 139 70 41 67 69 66 61 50 37 43 6 4 344 347 339 350 343 333
221 216 186 225 215 191 240 132 144 155 150 146 149 183 157 151 148 141 155 160 162 141 145 148 157 160 159 161 172 130 119 102 99 100 88 79 73 59 51 43 9 355 353 347 349 338 339 331 329
196 233 206 217 191 228 213 133 157 179 145 174 148 148 138 165 141 150 175 167 172 148 149 150 167 159 149 170 154 159 147 142 118 123 102 96 82 66 66 38 32 5 345 346 342 337 325 317 323
241 245 221 192 172 213 200 153 169 178 196 161 170 162 157 173 166 148 161 138 164 141 138 152 162 155 161 170 180 173 151 141 126 117 106 102 88 70 38 5 358 350 348 341 335 322 325 318 319
253 234 154 114 167 232 225 175 171 187 191 177 187 169 177 168 145 167 157 166 167 139 135 141 157 166 177 178 159 160 151 147 135 122 122 109 100 62 34 12 346 335 332 324 325 329 321 306 321
257 288 219 160 186 214 11 245 173 186 197 202 193 188 179 163 157 161 171 166 161 135 140 144 161 179 187 166 148 128 123 134 136 163 148 109 66 19 356 335 322 316 316 319 318 317 311 323 328
270 338 216 274 215 202 210 222 187 1 212 199 198 200 189 166 163 161 175 146 145 152 163 167 172 172 138 142 157 162 148 126 102 100 102 65 356 354 346 340 337 333 330 315 312 310 320 322 311
119 273 274 245 258 75 357 303 186 191 246 218 215 200 195 159 160 167 172 152 166 161 163 150 137 136 144 143 134 131 107 116 103 86 58 21 356 347 339 332 328 324 319 310 304 306 297 295 322
171 231 250 276 269 136 227 204 153 196 221 264 195 204 198 163 151 150 150 148 143 148 138 139 145 145 142 133 118 114 107 97 89 78 84 330 332 335 332 321 325 322 321 317 308 294 309 323 323
233 245 238 7 336 270 292 160 223 210 186 128 225 187 171 157 153 157 149 151 156 144 146 154 151 140 136 127 121 119 121 122 150 160 177 92 325 322 322 324 320 321 320 313 298 300 317 306 311
272 255 236 168 293 309 35 265 85 158 195 176 204 164 159 162 163 160 158 163 158 161 167 167 153 149 145 139 133 134 144 153 146 155 117 54 320 312 315 309 319 319 308 307 305 302 299 297 274
289 244 300 316 198 285 279 265 129 83 102 219 152 159 164 170 173 168 170 164 163 171 175 170 166 155 154 152 150 163 150 159 159 153 155 211 299 310 309 318 317 314 314 282 280 292 297 288 287
265 337 305 277 295 272 299 312 109 152 108 132 165 161 168 172 178 180 176 167 169 177 179 181 173 162 164 161 173 167 169 163 167 173 189 234 299 304 308 313 313 313 308 295 281 292 295 310 306
180 242 242 302 250 352 333 319 36 48 61 141 229 167 173 177 186 181 187 171 171 180 180 189 182 172 169 174 177 177 179 176 188 197 211 254 287 302 307 310 311 307 304 299 300 304 304 301 305
319 284 211 155 274 151 351 276 48 97 76 143 239 205 177 180 187 183 178 166 177 185 187 189 190 179 177 184 186 186 189 193 203 218 241 256 285 299 305 308 303 299 321 334 328 309 297 295 298